Lid_Strength_Index
-1 -0 0 3 10 10 12 10 7 8 7 5 5 6 7 6 8 12 2 1 0 1 -0 -0 -1 -1 -1 -1 -1 -1 -1 -1 -1 -1 -1 -1 -1 -1 -1 -1 -1 -1 -1 -1 -1 -1 -1 -1 -1
-0 0 2 6 11 14 12 8 9 7 6 5 5 5 6 7 4 4 3 1 0 0 -0 -0 -1 -1 -1 -1 -1 -1 -1 -1 -1 -1 -1 -1 -1 -1 -1 -1 -1 -1 -1 -1 -1 -1 -1 -1 -1
0 1 6 9 10 12 12 8 7 6 5 5 6 5 6 7 4 3 1 1 0 1 -0 -0 -1 -1 -1 -1 -1 -1 -1 -1 -1 -1 -1 -1 -1 -1 -1 -1 -1 -1 -1 -1 -1 -1 -1 -1 -1
2 3 5 9 11 9 8 7 6 5 5 5 5 7 4 3 3 2 1 1 1 1 0 -1 -1 -1 -1 -1 -1 -1 -1 -1 -1 -1 -1 -1 -1 -1 -1 -1 -1 -1 -1 -1 -1 -1 -1 -1 -1
2 5 9 10 9 7 6 5 5 6 5 5 5 8 6 3 1 1 1 1 1 1 -0 -0 -1 -1 -1 -1 -1 -1 -1 -1 -1 -1 -1 -1 -1 -1 -1 -1 -1 -1 -1 -1 -1 -1 -1 -1 -1
6 5 10 11 9 7 6 5 4 5 5 5 5 6 6 3 2 2 1 1 1 1 0 -0 -1 -1 -1 -1 -1 -1 -1 -1 -1 -1 -1 -1 -1 -1 -1 -1 -1 -1 -1 -1 -1 -1 -1 -1 -1
6 8 10 9 9 8 7 5 6 6 6 6 5 7 6 5 2 1 1 1 1 0 0 0 0 -1 -1 -1 -1 -1 -1 -1 -1 -1 -1 -1 -1 -1 -1 -1 -1 -1 -1 -1 -1 -1 -1 -1 -1
5 7 8 9 10 9 6 5 4 6 6 4 4 7 8 5 3 2 1 1 1 2 2 2 2 0 -0 -0 -1 -1 -1 -1 -1 -1 -1 -1 -1 -1 -1 -1 -1 -1 -1 -1 -1 -1 -1 -1 -1
1 10 11 10 9 8 5 6 4 3 5 5 4 5 5 3 2 2 5 4 3 3 3 3 3 2 1 -0 -1 -1 -1 -1 -1 -1 -1 -1 -0 -0 -0 -1 -1 -1 -1 -1 -1 -1 -1 -1 -1
6 10 9 6 6 7 6 6 5 6 6 6 6 4 3 3 3 3 3 4 5 5 4 2 3 3 3 2 0 1 0 -0 -0 -0 0 0 -0 -0 -0 -1 -1 -1 -1 -1 -1 -1 -1 -1 0
5 9 5 6 5 5 6 6 5 6 7 7 6 5 4 3 3 3 3 3 2 2 2 2 2 2 1 1 0 -0 1 0 1 1 0 -0 -0 0 -0 0 -0 -0 -1 -0 -0 -0 -0 0 0
7 6 6 4 5 6 6 5 6 6 7 5 4 4 4 5 5 5 5 5 5 5 4 4 3 4 4 2 2 1 0 -0 -0 0 0 0 0 0 0 0 -0 0 -0 0 0 0 0 0 0
7 6 5 5 5 5 5 6 6 7 6 4 4 4 5 6 6 5 5 5 5 6 5 4 4 4 4 4 4 3 2 0 0 -0 -0 -0 0 0 0 0 0 1 1 -0 -0 0 0 1 0
6 5 6 5 5 5 7 7 6 6 5 5 4 5 6 6 6 6 6 6 6 5 5 4 4 4 4 4 4 4 3 2 1 0 0 -0 0 0 0 0 0 0 1 1 1 0 0 1 1
5 7 6 6 6 7 7 9 7 6 6 6 6 7 7 7 6 7 6 6 6 6 6 5 5 4 4 4 4 3 4 3 2 2 1 0 0 0 0 0 0 0 0 1 1 0 1 1 1
7 7 10 7 7 7 8 11 8 6 7 7 7 7 7 7 6 6 6 6 7 7 7 6 5 5 5 5 4 4 3 3 3 3 3 1 -0 0 0 1 1 -0 -0 0 1 1 2 2 1
10 13 12 10 8 9 9 11 8 7 7 8 9 8 7 7 7 7 7 7 7 7 7 7 6 6 6 6 5 4 4 4 3 3 3 3 2 2 2 0 0 0 0 1 1 1 1 2 2
14 14 12 12 10 10 11 11 9 8 8 9 9 9 9 9 9 8 7 7 7 7 6 6 6 6 6 5 5 4 4 4 3 3 3 3 2 2 2 2 0 0 1 1 1 1 1 1 3
11 12 12 11 9 12 12 12 11 9 9 9 9 10 10 10 8 7 7 7 7 7 6 6 5 5 5 5 5 5 5 4 4 3 2 2 2 1 2 2 2 0 1 1 1 1 2 2 2
11 12 13 12 11 12 13 13 11 9 9 9 9 10 10 9 9 8 7 7 7 7 6 6 5 4 4 4 4 4 4 4 3 3 3 3 2 2 2 1 2 1 1 1 1 2 2 2 1
12 12 13 15 13 11 12 14 12 10 9 9 9 9 9 9 9 9 7 7 6 6 4 4 4 3 2 3 3 3 3 3 4 3 3 3 2 2 2 2 1 1 1 1 1 1 2 3 2
14 12 13 13 14 17 12 19 14 11 11 9 11 11 11 11 9 8 7 6 6 4 3 2 2 1 1 2 2 3 3 4 3 3 3 2 2 2 2 2 1 1 1 1 1 1 1 2 3
13 11 12 12 14 15 14 17 15 10 11 11 10 11 10 9 8 8 7 5 4 3 2 2 2 1 1 1 1 2 3 2 2 2 2 2 2 2 2 1 2 1 1 1 1 1 2 1 2
10 12 13 13 14 19 16 17 17 14 12 12 11 10 9 8 8 7 5 3 3 3 2 2 2 2 1 1 1 2 2 2 2 2 2 2 2 2 2 1 1 1 1 1 1 1 1 2 2
13 15 19 18 19 19 15 17 16 11 10 10 10 10 8 8 7 6 5 4 3 3 2 2 2 2 1 2 2 1 2 2 2 2 2 2 2 2 2 2 1 1 1 1 1 1 1 1 2
14 15 19 22 22 20 16 20 15 10 9 8 8 8 7 6 6 6 4 4 3 3 3 2 2 2 2 2 2 1 2 2 2 2 2 2 2 2 2 2 2 1 1 0 0 1 1 1 1
15 17 15 18 17 20 18 16 12 10 10 8 8 7 7 6 6 5 4 4 4 3 3 3 2 2 2 3 2 3 2 2 2 2 2 1 2 2 2 2 2 2 1 0 1 1 1 1 1
14 14 19 18 24 24 21 19 17 13 10 9 8 7 6 5 5 5 4 4 3 3 3 3 2 3 3 3 3 3 3 2 2 2 2 2 3 3 3 3 2 2 1 1 1 1 1 1 1
16 17 16 17 19 22 23 21 12 11 9 8 7 6 6 6 5 5 4 4 4 3 3 3 3 3 4 3 4 4 3 2 2 2 2 3 3 3 3 3 3 2 3 2 2 2 1 2 2
14 16 16 21 21 19 19 20 9 8 7 7 6 5 5 5 5 4 5 4 4 4 4 3 4 4 4 3 4 4 3 3 3 3 3 3 4 4 4 4 4 3 3 2 3 2 2 2 2